Simultaneous Nadir Overpasses (SNOs) Predictions

Prediction of SNOs between AURA and NPP Satellite Orbit:

Table of predicted SNOs for the next 14.0 days since TLE Epoch: 8/7/2021
Index Date (AURA) Time (AURA) Lat,Lon (AURA) SZA (AURA ) Date (NPP) Time (NPP) Lat,Lon (NPP) SZA (NPP ) Distance(km) Time Diff (sec)
1 08/07/2021 19:08:23 -79.37, -31.21 103.07 08/07/2021 19:08:14 -79.36, -31.31 103.05 2.18 9
2 08/07/2021 19:57:40 79.70, 138.77 76.44 08/07/2021 19:58:48 79.71, 138.90 76.37 2.66 68
3 08/10/2021 10:35:28 79.27, -83.63 77.81 08/10/2021 10:34:28 79.27, -83.53 77.84 2.14 60
4 08/10/2021 11:24:48 -79.55, 85.90 102.60 08/10/2021 11:25:05 -79.56, 86.03 102.64 2.92 17
5 08/13/2021 02:51:55 79.37, 32.91 78.43 08/13/2021 02:51:22 79.37, 32.97 78.45 1.27 33
6 08/13/2021 03:41:16 -79.61,-157.78 101.92 08/13/2021 03:42:00 -79.62,-157.69 101.97 2.05 44
7 08/15/2021 19:08:22 79.43, 149.18 79.14 08/15/2021 19:08:16 79.43, 149.21 79.14 0.77 6
8 08/15/2021 19:57:43 -79.67, -41.48 101.21 08/15/2021 19:58:54 -79.67, -41.41 101.28 1.63 71
9 08/18/2021 10:35:30 -79.27, 96.36 99.82 08/18/2021 10:34:33 -79.27, 96.46 99.80 2.27 57
10 08/18/2021 11:24:49 79.52, -94.31 79.82 08/18/2021 11:25:10 79.52, -94.28 79.80 0.66 21



Historial Predications of SNOs between AURA and NPP
